This is the latest recevied weather packets stored in our database for station/object KR8N. If no packets are shown the sender has not sent any weather packets the latest 10 day(s).
| Time | Temp. | Humidity | Pressure | Rain* | Wind** | Luminosity | Snow |
|---|---|---|---|---|---|---|---|
| 1778095284 | 15° C | 93% | 1014 hPa | 1.78 mm | - | 144 W/m² | - |
| 1778094981 | 15° C | 92% | 1013.9 hPa | 1.78 mm | - | 170 W/m² | - |
| 1778094677 | 15° C | 91% | 1014 hPa | 1.27 mm | - | 145 W/m² | - |
| 1778094375 | 15.56° C | 90% | 1014 hPa | 3.05 mm | - | 48 W/m² | - |
| 1778094071 | 16.67° C | 89% | 1013.8 hPa | 1.78 mm | - | 42 W/m² | - |
| 1778093769 | 16.67° C | 92% | 1013.8 hPa | 0 mm | - | 145 W/m² | - |
| 1778093465 | 16.67° C | 91% | 1013.7 hPa | 0 mm | - | 170 W/m² | - |
| 1778093162 | 16.67° C | 91% | 1013.8 hPa | 0 mm | - | 149 W/m² | - |
| 1778092860 | 16.67° C | 91% | 1013.7 hPa | 1.78 mm | - | 99 W/m² | - |
| 1778092556 | 16.67° C | 91% | 1013.7 hPa | 3.05 mm | - | 111 W/m² | - |
| 1778092252 | 17.22° C | 90% | 1013.5 hPa | 3.05 mm | - | 146 W/m² | - |
| 1778091949 | 17.22° C | 89% | 1013.5 hPa | 4.83 mm | - | 194 W/m² | - |
| 1778091647 | 17.22° C | 88% | 1013.5 hPa | 4.32 mm | - | 233 W/m² | - |
| 1778091345 | 17.78° C | 84% | 1013.3 hPa | 1.27 mm | - | 73 W/m² | - |
| 1778091041 | 17.78° C | 83% | 1013.2 hPa | 0 mm | - | 47 W/m² | - |
| 1778090738 | 17.78° C | 82% | 1013.2 hPa | 0 mm | - | 40 W/m² | - |
| 1778090435 | 18.33° C | 82% | 1013.3 hPa | 0 mm | - | 87 W/m² | - |
| 1778090131 | 18.33° C | 82% | 1013.4 hPa | 0 mm | - | 73 W/m² | - |
| 1778089827 | 18.33° C | 82% | 1013.4 hPa | 0 mm | - | 169 W/m² | - |
| 1778089526 | 17.78° C | 82% | 1013.5 hPa | 0 mm | - | 115 W/m² | - |
| 1778089222 | 18.33° C | 81% | 1013.6 hPa | 0 mm | - | 79 W/m² | - |
| 1778088920 | 18.33° C | 81% | 1013.6 hPa | 0 mm | - | 131 W/m² | - |
| 1778088617 | 18.89° C | 78% | 1013.5 hPa | 0 mm | - | 103 W/m² | - |
| 1778088314 | 18.33° C | 80% | 1013.5 hPa | 0 mm | - | 337 W/m² | - |
| 1778088010 | 17.78° C | 81% | 1013.5 hPa | 0 mm | - | 255 W/m² | - |
* Rain latest hour (hover to see other rain measurements)
** Current wind speed in m/s (hover to see current wind gust speed)